Lapse_Rate
7.2 7.8 7.4 7.4 6.7 6.8 6.3 6.3 6.1 6.1 6.2 6.4 5.9 5.6 5.5 5.4 5.5 5.6 5.4 5.3 5.5 5.4 5.1 4.8 4.6 5.0 5.4 5.6 5.7 5.4 5.6 5.2 5.2
7.9 8.1 7.8 7.7 6.9 6.5 6.5 6.5 6.2 6.4 6.4 6.3 5.9 5.5 5.2 5.0 5.1 5.5 5.3 5.3 5.5 5.4 5.1 5.1 5.2 5.5 5.7 5.8 5.5 5.4 5.4 5.0 5.0
7.8 7.4 7.6 7.5 7.3 7.0 6.9 6.5 6.0 6.3 6.6 6.0 5.6 5.2 5.0 4.9 4.8 5.1 5.3 5.4 5.6 5.5 5.4 5.3 5.1 5.6 5.9 5.6 5.4 5.4 5.1 5.2 5.1
8.3 8.1 7.7 7.4 7.2 7.0 6.6 6.4 6.0 6.4 6.5 6.1 5.6 5.1 5.1 5.0 5.0 5.4 5.5 5.6 5.6 5.6 5.6 5.5 5.4 5.7 5.8 5.7 5.4 5.2 5.2 5.1 4.9
8.4 8.2 7.9 7.5 7.2 6.9 6.5 6.5 6.4 6.8 6.6 6.0 5.4 5.2 5.1 5.1 5.3 5.5 5.7 5.8 5.7 5.6 5.7 5.8 5.8 5.7 5.5 5.4 5.5 5.3 5.0 4.9 4.9
8.1 8.3 8.0 7.9 7.4 6.9 7.1 6.4 6.5 6.4 6.6 6.0 5.4 5.3 5.3 5.3 5.5 5.7 5.8 5.7 5.7 5.5 5.4 5.3 5.4 5.6 5.6 5.5 5.5 5.2 5.0 4.9 5.0
7.8 8.1 8.3 8.2 7.8 7.1 6.5 6.6 6.4 6.7 6.7 6.4 5.7 5.4 5.5 5.5 5.8 5.8 5.7 5.7 5.4 5.4 5.2 5.3 5.5 5.7 5.7 5.9 5.4 5.2 5.0 5.0 5.1
8.1 8.3 8.3 8.2 8.0 7.5 6.5 6.4 6.5 6.9 6.9 6.9 6.4 5.8 5.6 5.7 5.6 5.7 5.8 5.6 5.5 5.3 4.9 5.1 5.4 5.0 6.1 5.4 5.5 5.3 4.9 4.9 5.1
7.9 8.1 8.5 8.1 7.8 7.5 7.0 6.9 6.8 7.0 7.1 7.1 6.5 5.9 5.8 5.9 5.9 5.9 5.9 5.8 5.8 5.3 5.2 5.3 5.5 5.4 5.4 5.6 5.5 5.1 4.9 5.1 5.2
7.7 8.1 8.3 8.4 7.4 7.0 7.2 7.0 6.9 7.1 7.3 7.1 6.3 6.1 6.3 6.2 6.2 6.1 6.1 5.9 6.3 6.5 5.7 6.0 5.8 5.2 5.3 5.5 5.3 5.0 5.1 5.3 5.4
7.4 7.3 7.9 8.0 7.4 7.0 7.1 6.9 6.9 6.9 7.3 7.3 6.9 6.8 6.8 6.6 6.1 6.3 6.6 6.6 6.1 6.1 5.5 5.1 4.8 4.9 5.6 5.4 5.3 5.1 5.3 5.5 5.5
7.8 8.3 8.2 7.6 7.3 7.0 7.0 7.1 7.1 7.3 7.6 8.0 7.4 7.1 6.9 6.9 6.7 6.3 6.3 6.2 6.0 5.7 5.6 5.4 5.6 5.8 5.7 5.4 5.3 5.3 5.7 5.5 5.4
8.1 7.6 7.9 7.4 7.1 7.1 7.1 7.1 7.3 7.3 7.3 7.7 7.5 7.6 7.0 6.7 6.5 6.3 6.1 5.8 5.5 5.5 5.3 5.4 5.5 5.6 5.6 5.4 5.5 5.6 5.5 5.5 5.6
8.3 8.2 8.2 7.7 7.4 7.1 7.1 7.2 7.1 7.2 7.1 7.4 7.5 7.4 6.8 6.6 6.4 6.0 5.9 5.8 5.7 5.5 5.5 5.5 5.6 5.7 5.7 5.7 5.7 5.5 5.5 5.6 5.9
8.2 8.1 8.4 8.0 7.7 7.3 7.1 7.0 6.9 7.0 7.2 7.5 7.4 7.2 6.8 6.6 6.4 6.3 6.3 6.0 5.9 5.8 5.8 5.8 6.1 6.3 6.0 5.8 5.7 5.6 5.5 5.8 6.0
8.6 8.6 8.5 8.1 7.7 7.6 7.2 7.1 7.0 7.1 7.3 7.3 7.1 6.8 6.5 6.5 6.3 6.1 5.9 6.1 6.1 6.1 6.3 6.3 6.3 6.2 6.2 6.0 5.8 5.6 5.8 6.1 6.1
8.4 8.7 8.8 8.6 7.8 7.5 7.3 7.1 7.1 7.3 7.3 7.3 7.1 7.0 6.7 6.4 6.5 6.5 6.1 6.2 6.2 6.1 6.1 6.0 6.2 6.3 6.3 6.1 6.0 6.0 6.3 6.3 6.2
8.7 8.8 8.9 8.6 8.2 8.1 7.6 7.1 7.2 7.4 7.3 7.3 7.1 7.0 6.9 6.6 6.3 6.3 6.3 6.1 5.9 5.7 5.5 5.7 6.0 6.3 6.2 6.2 6.0 5.9 6.1 6.2 5.9
8.9 8.9 9.0 8.3 8.7 8.4 7.9 7.9 7.5 7.4 7.4 7.0 7.0 7.1 6.8 6.8 6.7 6.6 6.5 6.4 6.0 5.8 5.7 6.0 6.3 6.5 6.4 6.3 6.4 6.8 6.5 6.4 6.3
8.8 8.9 8.7 8.4 8.2 8.3 8.5 8.3 7.7 7.6 7.4 7.2 7.0 7.0 7.0 6.9 6.7 6.8 6.7 6.6 6.4 6.3 6.1 6.2 6.6 6.8 6.7 6.6 6.5 6.7 6.8 6.7 6.5
Wind_Speed
13 18 17 19 20 17 14 14 13 12 12 10 10 9 10 8 7 5 5 4 4 4 4 4 3 5 6 6 6 4 2 1 1
11 10 18 20 20 16 14 14 15 14 11 9 11 10 8 8 7 7 6 6 4 3 4 4 5 6 4 6 4 5 5 4 4
17 11 14 16 17 16 14 13 12 11 10 10 10 9 8 8 8 7 6 5 6 6 5 3 3 3 4 4 4 5 6 4 4
13 16 15 15 13 9 9 11 11 10 10 10 9 10 8 7 7 7 6 6 6 6 4 4 5 4 5 4 4 5 6 5 6
7 10 15 15 14 10 9 10 10 11 10 10 10 9 8 7 6 6 6 6 6 5 5 4 6 6 5 5 5 5 7 6 5
6 10 13 14 12 16 14 10 11 11 11 11 8 7 7 7 7 6 6 6 6 6 5 5 6 7 6 6 6 6 6 6 6
9 16 18 17 15 11 12 10 12 11 10 9 8 7 7 6 6 7 6 6 6 7 6 8 7 6 7 6 6 6 6 6 6
7 16 18 17 17 16 16 14 12 10 10 10 10 9 9 8 7 6 6 6 6 5 5 4 5 9 6 6 7 5 7 6 6
11 19 19 17 18 18 17 16 14 13 12 11 11 11 10 7 6 6 6 6 6 6 5 5 6 6 7 7 4 13 12 9 6
15 18 17 18 19 18 17 17 17 16 14 11 13 12 10 10 9 8 8 6 7 8 9 7 6 6 7 6 6 13 13 14 6
10 11 16 16 16 15 15 14 13 13 13 14 12 12 12 10 10 9 8 7 7 6 6 6 5 6 6 6 5 14 13 13 7
7 6 12 15 16 17 14 14 14 15 14 12 12 12 12 12 12 11 10 10 9 5 5 4 4 5 7 7 6 12 13 10 7
10 11 9 14 14 11 12 13 13 15 14 14 15 14 14 14 14 13 12 12 10 6 5 5 5 5 6 8 7 9 13 9 5
5 11 11 12 17 16 15 14 14 14 14 17 16 13 11 13 13 13 12 11 8 8 6 6 6 6 6 6 7 7 14 14 6
7 9 7 14 15 14 14 15 17 15 17 15 12 13 13 13 12 10 9 12 9 9 9 9 8 7 5 4 5 6 11 13 9
5 4 3 6 13 14 15 17 18 17 15 13 13 13 13 13 12 11 10 11 10 8 8 8 8 7 6 4 4 5 7 12 11
4 5 3 4 8 12 12 13 15 18 12 13 15 14 13 12 13 13 11 8 8 9 8 8 8 8 7 6 5 6 5 5 6
6 5 6 6 6 3 5 9 12 9 13 15 13 13 12 12 11 13 12 10 10 11 12 12 11 10 9 9 9 10 11 10 7
4 7 5 7 6 5 4 6 6 6 13 15 15 12 11 11 11 11 10 10 8 1 8 13 12 11 11 9 8 14 17 16 13
5 6 7 7 6 4 1 4 8 11 13 14 16 14 13 10 10 10 10 9 10 11 3 5 13 14 15 14 13 15 17 17 17
Wind_Direction
188 185 191 187 189 185 178 174 175 181 182 174 169 181 191 187 182 182 198 203 195 216 224 236 233 235 226 222 229 222 172 141 116
216 210 195 191 194 187 170 173 181 182 167 172 177 191 195 195 186 182 197 193 199 215 233 241 237 226 223 203 201 172 145 124 110
234 210 192 196 194 185 178 176 175 171 162 174 181 185 195 191 184 188 190 182 204 216 234 211 183 164 191 170 150 140 120 117 114
226 198 179 185 185 181 169 162 163 161 159 168 182 188 187 185 180 184 180 186 197 204 206 186 189 168 145 132 142 134 120 119 111
197 193 171 170 173 147 161 168 162 160 166 178 188 188 179 188 171 168 179 188 184 171 185 178 158 138 128 133 144 132 132 122 116
200 179 170 168 158 174 166 160 171 169 175 187 173 162 163 161 165 167 173 164 163 164 149 134 129 141 140 146 148 130 115 117 123
192 182 184 176 169 165 158 165 177 175 175 173 162 157 158 162 167 167 169 167 165 165 155 153 152 151 145 150 135 126 120 120 113
198 195 186 181 166 165 177 165 176 168 171 165 160 161 169 179 169 162 153 167 170 135 142 166 167 143 137 132 128 135 130 130 139
209 198 187 174 168 165 171 173 177 172 171 170 164 171 171 151 155 149 167 172 159 147 159 176 160 147 149 138 134 145 151 148 144
199 191 174 169 172 172 174 175 176 179 173 162 172 170 171 164 164 170 177 182 150 159 170 170 172 157 142 144 144 159 161 153 138
175 171 168 173 167 176 178 175 168 169 164 184 172 173 168 168 172 176 176 172 171 167 163 170 159 147 157 154 178 170 164 152 138
158 158 169 169 172 180 162 171 168 168 174 168 179 184 173 175 176 178 177 181 182 172 150 156 159 159 162 171 183 181 160 142 149
164 162 162 158 161 164 167 161 165 169 168 173 187 193 180 175 177 179 180 180 174 175 177 160 156 161 180 183 177 182 166 150 151
139 146 162 159 160 171 177 157 161 177 172 190 189 184 173 170 177 181 181 176 171 169 156 152 160 173 184 186 181 194 178 165 166
143 162 136 159 167 176 167 165 167 179 188 191 173 169 171 176 176 177 175 175 174 172 166 170 173 176 185 197 198 186 189 177 171
154 180 131 181 173 170 170 171 181 182 196 168 168 166 174 177 174 175 176 175 175 173 174 182 184 189 190 196 194 200 186 190 184
106 106 133 159 170 173 174 180 183 199 165 165 170 173 174 174 177 179 178 181 180 182 187 190 185 191 198 193 187 201 194 194 192
53 61 57 79 113 137 191 185 185 171 163 162 171 174 175 181 189 183 182 188 189 196 201 194 189 199 191 184 206 209 195 191 192
73 68 63 76 80 104 157 166 163 163 168 170 167 175 178 186 190 194 190 190 194 245 221 198 202 179 184 205 208 164 186 191 188
78 71 58 70 71 56 61 219 191 178 174 177 180 182 183 180 188 193 191 194 200 205 208 210 196 192 192 186 185 182 187 191 191